User: anonymous   Login
Location: Unspecified
(0.0000°N, 0.0000°E)
Time: 01:07:31
(UTC+00:00)
Language:

Nadezhda 4 - Orbit

View from above orbital plane
View from above orbital plane
View from above satellite
View from above satellite

Ground track
Ground track

The orbit data is extracted from the following two-line orbital elements,

1 23179U 94041A   21023.62644149  .00000009  00000-0 -63798-5 0  9992
2 23179  82.9443  50.1181 0034769 200.7275 277.3104 13.76568026332514
Epoch (UTC): 23 January 2021 15:02:04
Eccentricity: 0.0034769
inclination: 82.9443°
perigee height: 950 km
apogee height: 1001 km
right ascension of ascending node: 50.1181°
argument of perigee: 200.7275°
revolutions per day: 13.76568026
mean anomaly at epoch: 277.3104°
orbit number at epoch: 33251

The dashed part of the orbit path shows where the satellite is in the earth's shadow,  

DLR